Showing default

SHIYAN 25 (SY-25), 57047

Orbit data source: Space-Track

SHIYAN 25 (SY-25), 57047 is a payload satellite owned by DFH (CN) in SSO that was launched on Tue, 20 Jun 2023 UTC via a CHANG ZHENG 6 launch vehicle from the Taiyaun Space Center, China (TSC). Payload-class satellites include a variety of spacecraft equipped with specific instruments for various scientific and technological missions. These include communications satellites like Starlink; space stations such as the ISS; scientific satellites like the Hubble; Earth observation satellites from companies like Planet Labs, Umbra, and HawkEye 360; GPS; miniature CubeSats for education and research; and military/defense satellites.

Not visible in the next 10 days
Identifier
57047, 2023-087A
Orbit
SSO
Country
Flag of CNCN / PRC
Related business
Manufacturer
DFH
Mission
Operational Civil Technology
Bus & Motor
Unknown
Mass
~100 kg wet, 100 kg dry
Launch date (UTC)
2023-06-20 (2 years ago)
Launch vehicle
CHANG ZHENG 6
Launch site
Taiyaun Space Center, China (TSC)
Object type
Payload
Rocket body
Debris
Shape & HBR
Box + 2 Pan, 1.0 m
Radar Cross Section
0.833 m², Large (>1 m²)

Expand to show TLE details & history
Last TLE update: 18 hours ago

TLE from 18 hours ago
0 SHIYAN 25 (SY-25)
1 57047U 23087A   25258.45515432  .00012254  19002-5  23812-4 0  9995
2 57047  96.5109 316.1833 0008941 248.1761 111.8569 16.01000883130845
Epoch: 2025-09-15T10:55Z
TLE epoch observation values (Epoch: 2025-09-15T10:55:25.333Z)
Latitude
-0.00005°
Longitude
157.66819°
Altitude
277.089 km
Speed
7.74 km/s
True Right ascension
21h 04m 43s
True Declination
0° 00' 00"
Sunlit
Object was in full shadow at epoch
Visualization orbit readout
Latitude
Unknown
Longitude
Unknown
Altitude
Unknown
Speed
Unknown
Apparent Right ascension
Unknown
Apparent Declination
Unknown
Sunlit
N/A
Visualization observer readout
Local Sidereal Time
21:22:42
Azimuth
Unknown
Elevation
Unknown
Doppler factor
Unknown
Orbital elements
Apogee altitude
274.41 km
Perigee altitude
262.525 km
Semi-major axis
6,646.604 km
Eccentricity
0.00089
Inclination
96.5109°
RAAN
316.1833°
Arg. of periapsis
248.1761°
True anomaly
111.95195°
Mean anomaly
111.8569°
Eccentric anomaly
111.90443°
Mean motion
4.00538 °/min
Orbital period
89.88 mins
BSTAR
0.000023812
Loading maneuver chart data...
Computing Atmospheric mass density...
Loading historical data...
Loading historical data...
Loading historical data...
Loading historical data...
Loading historical data...
Loading historical data...
Loading historical data...
Other satellites on launch #87 in the year 2023 (2023-06-20 UTC)

Documentation

Showing up to 5 results
|